This is the latest recevied weather packets stored in our database for station/object K4KMJ. If no packets are shown the sender has not sent any weather packets the latest 10 day(s).
| Time | Temp. | Humidity | Pressure | Rain* | Wind** | Luminosity | Snow |
|---|---|---|---|---|---|---|---|
| 1788369328 | 30° C | 88% | 1017.6 hPa | 0 mm | - | 830 W/m² | - |
| 1788369008 | 30° C | 92% | 1017.7 hPa | 0 mm | - | 666 W/m² | - |
| 1788368702 | 30° C | 92% | 1017.7 hPa | 0.51 mm | - | 783 W/m² | - |
| 1788368398 | 28.89° C | 92% | 1017.6 hPa | 0.51 mm | - | 764 W/m² | - |
| 1788368097 | 28.89° C | 92% | 1017.8 hPa | 0 mm | - | 179 W/m² | - |
| 1788367792 | 28.89° C | 90% | 1018 hPa | 0 mm | - | 203 W/m² | - |
| 1788367487 | 28.89° C | 91% | 1018.1 hPa | 0 mm | - | 299 W/m² | - |
| 1788367186 | 28.89° C | 90% | 1018 hPa | 0 mm | - | 375 W/m² | - |
| 1788366882 | 30° C | 88% | 1017.7 hPa | 0 mm | - | 155 W/m² | - |
| 1788366579 | 30.56° C | 88% | 1017.8 hPa | 0 mm | - | 318 W/m² | - |
| 1788366275 | 30.56° C | 88% | 1017.7 hPa | 0 mm | - | 385 W/m² | - |
| 1788365974 | 30.56° C | 88% | 1017.7 hPa | 0 mm | - | 802 W/m² | - |
| 1788365670 | 30° C | 89% | 1017.7 hPa | 0 mm | - | 773 W/m² | - |
| 1788365365 | 30.56° C | 90% | 1017.9 hPa | 0 mm | - | 782 W/m² | - |
| 1788361851 | 30.56° C | 88% | 1018.4 hPa | 0 mm | - | 251 W/m² | - |
| 1788361521 | 30.56° C | 88% | 1018.4 hPa | 0 mm | - | 251 W/m² | - |
| 1788361216 | 30.56° C | 89% | 1018.6 hPa | 0 mm | - | 753 W/m² | - |
| 1788360910 | 29.44° C | 91% | 1018.5 hPa | 0 mm | - | 684 W/m² | - |
| 1788360605 | 30° C | 90% | 1018.5 hPa | 0 mm | - | 145 W/m² | - |
| 1788360302 | 30° C | 91% | 1018.5 hPa | 0 mm | - | 718 W/m² | - |
| 1788359996 | 28.89° C | 91% | 1018.5 hPa | 0 mm | - | 440 W/m² | - |
| 1788359691 | 29.44° C | 90% | 1018.5 hPa | 0 mm | - | 139 W/m² | - |
| 1788359387 | 30° C | 90% | 1018.2 hPa | 0 mm | - | 695 W/m² | - |
| 1788359083 | 28.89° C | 92% | 1018.4 hPa | 0 mm | - | 636 W/m² | - |
| 1788358777 | 30° C | 91% | 1018.2 hPa | 0 mm | - | 216 W/m² | - |
* Rain latest hour (hover to see other rain measurements)
** Current wind speed in m/s (hover to see current wind gust speed)